Location: Ahausen
(50.4985°N, 8.2722°E)
Time: 07:59:32
(UTC+00:00)

YUBILEINY - Pass Details

Date: 09 July 2022
Orbit: 1478 x 1509 km, 82.5° (Epoch: 07 August)

Event Time Altitude Azimuth Distance (km) Brightness Sun altitude
Rises 01:09:48 0° 349° (N) 4,652 ? -14.0°
Reaches altitude 10° 01:13:15 10° 0° (N) 3,663 ? -13.8°
Maximum altitude 01:20:49 31° 60° (ENE) 2,405 ? -13.3°
Drops below altitude 10° 01:28:17 10° 119° (ESE) 3,628 ? -12.7°
Sets 01:31:39 0° 130° (SE) 4,600 ? -12.5°
